This demonstration page uses our WeatherBlox Daily Observations layout. Learn more.

Left ArrowRight Arrow

Hourly Observations for January 11, 2017

Temp ( °F °C ) Dew Point ( °F °C ) Humidity (%) Winds ( mph kmh ) Pressure ( in mb ) Visibility ( mi km ) Precip ( " mm )
12:53 am 00:53 Clear 52 11.1 34 1.1 50 50 SSW 6 9 29.87 1012 10 16 0.00 0.00
1:53 am 01:53 Clear 51 10.6 38 3.3 61 61 SSW 6 9 29.85 1011 10 16 0.00 0.00
2:53 am 02:53 Clear 50 10 38 3.3 63 63 SSW 6 9 29.94 1014 10 16 0.00 0.00
3:53 am 03:53 Clear 50 10 39 3.9 66 66 SW 8 13 29.94 1014 10 16 0.00 0.00
4:53 am 04:53 Clear 51 10.6 40 4.4 66 66 SW 3 6 29.82 1010 10 16 0.00 0.00
5:53 am 05:53 Clear 49 9.4 39 3.9 69 69 S 7 11 29.81 1009 10 16 0.00 0.00
6:53 am 06:53 Clear 49 9.4 39 3.9 69 69 SSW 6 9 29.81 1010 10 16 0.00 0.00
7:53 am 07:53 Sunny 49 9.4 40 4.4 71 71 SSW 6 9 29.81 1010 10 16 0.00 0.00
8:53 am 08:53 Sunny 52 11.1 42 5.6 69 69 SW 10 17 29.83 1010 10 16 0.00 0.00
9:53 am 09:53 Sunny 61 16.1 41 5 48 48 SW 13 20 29.84 1011 10 16 0.00 0.00
10:53 am 10:53 Sunny 67 19.4 38 3.3 35 35 SW 12 19 29.85 1011 10 16 0.00 0.00
11:53 am 11:53 undefined 75 23.9 31 -0.6 20 20 undefined N/A 29.81 1009 N/A 0.00 0.00
12:53 pm 12:53 Sunny 78 25.6 26 -3.3 15 15 WSW 23 37 29.77 1008 10 16 0.00 0.00
1:53 pm 13:53 Sunny 81 27.2 23 -5 12 12 W 24 39 29.74 1007 10 16 0.00 0.00
2:53 pm 14:53 Sunny 82 27.8 19 -7.2 9 9 W 22 35 29.71 1006 10 16 0.00 0.00
3:53 pm 15:53 Sunny 81 27.2 21 -6.1 11 11 WSW 23 37 29.70 1006 10 16 0.00 0.00
4:53 pm 16:53 Sunny 80 26.7 20 -6.7 10 10 WSW 15 24 29.71 1006 10 16 0.00 0.00
5:53 pm 17:53 Sunny 76 24.4 21 -6.1 13 13 WSW 12 19 29.73 1007 10 16 0.00 0.00
6:53 pm 18:53 Clear 71 21.7 21 -6.1 15 15 WSW 13 20 29.75 1008 10 16 0.00 0.00
7:53 pm 19:53 Clear 66 18.9 21 -6.1 18 18 WSW 10 17 29.79 1009 10 16 0.00 0.00
8:53 pm 20:53 Clear 64 17.8 21 -6.1 19 19 WNW 9 15 29.80 1009 10 16 0.00 0.00
9:53 pm 21:53 Clear 65 18.3 22 -5.6 19 19 WNW 13 20 29.80 1009 10 16 0.00 0.00
10:11 pm 22:11 Clear 64 17.8 22 -5.6 20 20 SSW 10 17 29.83 1010 10 16 0.00 0.00
10:53 pm 22:53 Clear 58 14.4 36 2.2 44 44 SSW 7 11 29.84 1010 10 16 0.00 0.00
11:53 pm 23:53 Clear 57 13.9 44 6.7 62 62 SSW 9 15 29.83 1010 10 16 0.00 0.00

Powered by AerisWeather